,,,PA_Meas_PMT16A,,PR_Meas_QMR101_102,,RH_Meas_QMH101,,SR_Meas_QMS101,,TA_Meas_QMH101,,GenWind,,GenWind,
date,time,status,PA,status,PR,status,RH,status,SR,status,TA,status,DirAvg,status,SpdAvg,
2009-02-12, 00:00:04,VALID,998.153,VALID,0,VALID,89.5183,VALID,0,VALID,25.5574,VALID,233,VALID,0.898438,
2009-02-12, 00:01:04,VALID,998.161,VALID,0,VALID,89.4878,VALID,0,VALID,25.5769,VALID,266,VALID,0.671875,
2009-02-12, 00:02:04,VALID,998.105,VALID,0,VALID,89.5183,VALID,0,VALID,25.5379,VALID,293,VALID,0.474219,
2009-02-12, 00:03:04,VALID,998.116,VALID,0,VALID,89.6633,VALID,0,VALID,25.5203,VALID,307,VALID,0.371094,
2009-02-12, 00:04:04,VALID,998.097,VALID,0,VALID,89.9303,VALID,0,VALID,25.4402,VALID,307,VALID,0.304297,
2009-02-12, 00:05:04,VALID,998.036,VALID,0,VALID,90.1745,VALID,0,VALID,25.3797,VALID,307,VALID,0.191797,
2009-02-12, 00:06:04,VALID,998.012,VALID,0,VALID,90.3652,VALID,0,VALID,25.3407,VALID,307,VALID,0.278125,
2009-02-12, 00:07:04,VALID,998.02,VALID,0,VALID,90.6628,VALID,0,VALID,25.3231,VALID,307,VALID,0.123047,
2009-02-12, 00:08:04,VALID,997.976,VALID,0,VALID,90.8459,VALID,0,VALID,25.2626,VALID,307,VALID,0.108984,
2009-02-12, 00:09:04,VALID,997.974,VALID,0,VALID,91.0061,VALID,0,VALID,25.2431,VALID,307,VALID,0,
2009-02-12, 00:10:04,VALID,997.951,VALID,0,VALID,90.9374,VALID,0,VALID,25.2431,VALID,307,VALID,0.224219,
2009-02-12, 00:11:04,VALID,997.927,VALID,0,VALID,90.968,VALID,0.112286,VALID,25.2431,VALID,307,VALID,0.321484,
2009-02-12, 00:12:04,VALID,997.888,VALID,0,VALID,90.9756,VALID,0,VALID,25.2431,VALID,307,VALID,0.212109,
2009-02-12, 00:13:04,VALID,997.866,VALID,0,VALID,90.9374,VALID,0,VALID,25.2626,VALID,307,VALID,0.262891,
2009-02-12, 00:14:04,VALID,997.838,VALID,0,VALID,90.9527,VALID,0,VALID,25.2626,VALID,307,VALID,0.282422,
2009-02-12, 00:15:04,VALID,997.845,VALID,0,VALID,90.968,VALID,0,VALID,25.2626,VALID,307,VALID,0.10625,
2009-02-12, 00:16:04,VALID,997.804,VALID,0,VALID,90.8993,VALID,0,VALID,25.2626,VALID,307,VALID,0.00117188,
2009-02-12, 00:17:04,VALID,997.779,VALID,0,VALID,90.9451,VALID,0,VALID,25.2821,VALID,307,VALID,0.0914062,
2009-02-12, 00:18:04,VALID,997.769,VALID,0,VALID,90.9146,VALID,0,VALID,25.2821,VALID,307,VALID,0.000390625,
2009-02-12, 00:19:04,VALID,997.799,VALID,0,VALID,90.9146,VALID,0,VALID,25.2821,VALID,254,VALID,0.351563,
2009-02-12, 00:20:04,VALID,997.781,VALID,0,VALID,90.8535,VALID,0.112286,VALID,25.3017,VALID,222,VALID,0.482422,
2009-02-12, 00:21:04,VALID,997.806,VALID,0,VALID,90.823,VALID,0,VALID,25.3817,VALID,222,VALID,0.361719,
2009-02-12, 00:22:04,VALID,997.807,VALID,0,VALID,90.7925,VALID,0,VALID,25.3602,VALID,222,VALID,0.302344,
2009-02-12, 00:23:04,VALID,997.835,VALID,0,VALID,90.6399,VALID,0,VALID,25.3993,VALID,202,VALID,0.460938,
2009-02-12, 00:24:04,VALID,997.824,VALID,0,VALID,90.5712,VALID,0,VALID,25.4188,VALID,223,VALID,0.176172,
2009-02-12, 00:25:04,VALID,997.833,VALID,0,VALID,90.3957,VALID,0,VALID,25.4383,VALID,247,VALID,0.275781,
2009-02-12, 00:26:04,VALID,997.859,VALID,0,VALID,90.411,VALID,0,VALID,25.3993,VALID,313,VALID,0.44375,
2009-02-12, 00:27:04,VALID,997.891,VALID,0,VALID,90.6017,VALID,0,VALID,25.3602,VALID,319,VALID,0.424219,
2009-02-12, 00:28:04,VALID,997.861,VALID,0,VALID,90.7467,VALID,0.112286,VALID,25.2821,VALID,355,VALID,0.657031,
2009-02-12, 00:29:04,VALID,997.835,VALID,0,VALID,91.0061,VALID,0.112286,VALID,25.204,VALID,50,VALID,0.911328,
2009-02-12, 00:30:04,VALID,997.841,VALID,0,VALID,91.5097,VALID,0,VALID,25.126,VALID,70,VALID,0.698828,
2009-02-12, 00:31:04,VALID,997.848,VALID,0,VALID,91.6928,VALID,0,VALID,25.0869,VALID,81,VALID,0.469141,
2009-02-12, 00:32:04,VALID,997.841,VALID,0,VALID,91.7691,VALID,0,VALID,25.0284,VALID,84,VALID,0.875391,
2009-02-12, 00:33:04,VALID,997.763,VALID,0,VALID,91.8454,VALID,0,VALID,24.9893,VALID,91,VALID,1.17227,
2009-02-12, 00:34:04,VALID,997.711,VALID,0,VALID,91.9827,VALID,0,VALID,24.9698,VALID,103,VALID,1.25156,
2009-02-12, 00:35:04,VALID,997.688,VALID,0,VALID,92.12,VALID,0,VALID,24.9326,VALID,103,VALID,1.02578,
2009-02-12, 00:36:04,VALID,997.748,VALID,0,VALID,92.1582,VALID,0,VALID,24.9131,VALID,105,VALID,0.525781,
2009-02-12, 00:37:04,VALID,997.734,VALID,0,VALID,92.2726,VALID,0,VALID,24.8936,VALID,112,VALID,0.498437,
2009-02-12, 00:38:04,VALID,997.773,VALID,0,VALID,92.3031,VALID,0,VALID,24.8936,VALID,112,VALID,0.078125,
2009-02-12, 00:39:04,VALID,997.76,VALID,0,VALID,92.5244,VALID,0,VALID,24.8936,VALID,112,VALID,0.140234,
2009-02-12, 00:40:04,VALID,997.749,VALID,0,VALID,92.6694,VALID,0,VALID,24.9131,VALID,113,VALID,0.205078,
2009-02-12, 00:41:04,VALID,997.714,VALID,0,VALID,92.7304,VALID,0,VALID,24.9522,VALID,295,VALID,0.648438,
2009-02-12, 00:42:04,VALID,997.692,VALID,0,VALID,92.7228,VALID,0,VALID,25.0517,VALID,258,VALID,0.53125,
2009-02-12, 00:43:04,VALID,997.686,VALID,0,VALID,92.4252,VALID,0,VALID,25.0888,VALID,258,VALID,0.502344,
2009-02-12, 00:44:04,VALID,997.654,VALID,0,VALID,92.1506,VALID,0,VALID,25.1864,VALID,245,VALID,0.483203,
2009-02-12, 00:45:04,VALID,997.63,VALID,0,VALID,91.3494,VALID,0,VALID,25.2841,VALID,280,VALID,0.921484,
2009-02-12, 00:46:04,VALID,997.642,VALID,0,VALID,90.884,VALID,0,VALID,25.4031,VALID,232,VALID,1.24883,
2009-02-12, 00:47:04,VALID,997.656,VALID,0,VALID,90.4186,VALID,0,VALID,25.4812,VALID,258,VALID,1.02227,
2009-02-12, 00:48:04,VALID,997.713,VALID,0,VALID,89.8159,VALID,0,VALID,25.4988,VALID,248,VALID,1.13398,
2009-02-12, 00:49:04,VALID,997.676,VALID,0,VALID,89.3505,VALID,0,VALID,25.5574,VALID,233,VALID,1.22617,
2009-02-12, 00:50:04,VALID,997.651,VALID,0,VALID,88.9461,VALID,0,VALID,25.614,VALID,270,VALID,1.19922,
2009-02-12, 00:51:04,VALID,997.631,VALID,0,VALID,88.8622,VALID,0,VALID,25.6531,VALID,257,VALID,0.980078,
2009-02-12, 00:52:04,VALID,997.586,VALID,0,VALID,88.6333,VALID,0,VALID,25.6531,VALID,263,VALID,1.15859,
2009-02-12, 00:53:04,VALID,997.507,VALID,0,VALID,88.6943,VALID,0,VALID,25.6726,VALID,233,VALID,1.20781,
2009-02-12, 00:54:04,VALID,997.467,VALID,0,VALID,88.5417,VALID,0,VALID,25.6726,VALID,243,VALID,1.37695,
2009-02-12, 00:55:04,VALID,997.482,VALID,0,VALID,88.5265,VALID,0.112286,VALID,25.6941,VALID,282,VALID,1.06719,
2009-02-12, 00:56:04,VALID,997.513,VALID,0,VALID,88.6791,VALID,0,VALID,25.6726,VALID,287,VALID,0.501562,
2009-02-12, 00:57:04,VALID,997.489,VALID,0,VALID,88.6867,VALID,0,VALID,25.6941,VALID,270,VALID,0.846875,
2009-02-12, 00:58:04,VALID,997.47,VALID,0,VALID,88.5951,VALID,0,VALID,25.6531,VALID,264,VALID,0.876562,
2009-02-12, 00:59:04,VALID,997.516,VALID,0,VALID,88.4349,VALID,0,VALID,25.6531,VALID,280,VALID,0.746094,
2009-02-12, 01:00:04,VALID,997.508,VALID,0,VALID,88.6638,VALID,0,VALID,25.6336,VALID,324,VALID,1.05039,
2009-02-12, 01:01:04,VALID,997.52,VALID,0,VALID,88.7783,VALID,0,VALID,25.614,VALID,346,VALID,1.3957,
2009-02-12, 01:02:04,VALID,997.511,VALID,0,VALID,87.9237,VALID,0,VALID,25.575,VALID,328,VALID,2.02891,
2009-02-12, 01:03:04,VALID,997.52,VALID,0,VALID,88.5417,VALID,0,VALID,25.5964,VALID,355,VALID,1.45039,
2009-02-12, 01:04:04,VALID,997.471,VALID,0,VALID,88.7783,VALID,0,VALID,25.5555,VALID,10,VALID,1.41836,
2009-02-12, 01:05:04,VALID,997.443,VALID,0,VALID,88.8011,VALID,0,VALID,25.5183,VALID,12,VALID,1.38047,
2009-02-12, 01:06:04,VALID,997.397,VALID,0,VALID,88.7249,VALID,0,VALID,25.5183,VALID,12,VALID,1.41328,
2009-02-12, 01:07:04,VALID,997.398,VALID,0,VALID,88.702,VALID,0,VALID,25.5203,VALID,12,VALID,0.861719,
2009-02-12, 01:08:04,VALID,997.403,VALID,0,VALID,88.908,VALID,0,VALID,25.5183,VALID,12,VALID,0.628125,
2009-02-12, 01:09:04,VALID,997.393,VALID,0,VALID,88.2976,VALID,0,VALID,25.4988,VALID,9,VALID,0.450781,
2009-02-12, 01:10:04,VALID,997.38,VALID,0,VALID,88.2747,VALID,0,VALID,25.4988,VALID,9,VALID,0.221094,
2009-02-12, 01:11:04,VALID,997.292,VALID,0,VALID,88.557,VALID,0,VALID,25.5183,VALID,310,VALID,0.639453,
2009-02-12, 01:12:04,VALID,997.214,VALID,0,VALID,88.5646,VALID,0,VALID,25.5398,VALID,276,VALID,0.0355469,
2009-02-12, 01:13:04,VALID,997.181,VALID,0,VALID,87.878,VALID,0,VALID,25.4988,VALID,276,VALID,0.00195313,
2009-02-12, 01:14:04,VALID,997.147,VALID,0,VALID,87.878,VALID,0,VALID,25.4793,VALID,52,VALID,1.01367,
2009-02-12, 01:15:04,VALID,997.2,VALID,0,VALID,87.9466,VALID,0,VALID,25.4988,VALID,247,VALID,1.13477,
2009-02-12, 01:16:04,VALID,997.162,VALID,0,VALID,87.6033,VALID,0,VALID,25.5183,VALID,237,VALID,0.789063,
2009-02-12, 01:17:04,VALID,997.124,VALID,0,VALID,86.9319,VALID,0,VALID,25.5769,VALID,261,VALID,1.50586,
2009-02-12, 01:18:04,VALID,997.128,VALID,0,VALID,86.497,VALID,0,VALID,25.6941,VALID,254,VALID,0.867969,
2009-02-12, 01:19:04,VALID,997.103,VALID,0,VALID,86.3826,VALID,0,VALID,25.7331,VALID,285,VALID,0.950391,
2009-02-12, 01:20:04,VALID,997.074,VALID,0,VALID,86.4283,VALID,0,VALID,25.7331,VALID,275,VALID,0.276172,
2009-02-12, 01:21:04,VALID,997.031,VALID,0,VALID,86.291,VALID,0,VALID,25.7136,VALID,275,VALID,0.325391,
2009-02-12, 01:22:04,VALID,997.012,VALID,0,VALID,86.3292,VALID,0,VALID,25.7331,VALID,275,VALID,0.192578,
2009-02-12, 01:23:04,VALID,997.054,VALID,0,VALID,86.4436,VALID,0,VALID,25.7136,VALID,281,VALID,0.703906,
2009-02-12, 01:24:04,VALID,997.042,VALID,0,VALID,86.8709,VALID,0,VALID,25.7546,VALID,255,VALID,0.619141,
2009-02-12, 01:25:04,VALID,997.067,VALID,0,VALID,86.8174,VALID,0,VALID,25.7136,VALID,228,VALID,0.930469,
2009-02-12, 01:26:04,VALID,997.106,VALID,0,VALID,86.7411,VALID,0,VALID,25.6941,VALID,236,VALID,0.758594,
2009-02-12, 01:27:04,VALID,997.117,VALID,0,VALID,86.9014,VALID,0,VALID,25.6941,VALID,238,VALID,0.169531,
2009-02-12, 01:28:04,VALID,997.141,VALID,0,VALID,87.0311,VALID,0,VALID,25.6746,VALID,238,VALID,0.239453,
2009-02-12, 01:29:04,VALID,997.129,VALID,0,VALID,87.0845,VALID,0,VALID,25.655,VALID,238,VALID,0.169922,
2009-02-12, 01:30:04,VALID,997.138,VALID,0,VALID,87.1684,VALID,0,VALID,25.6355,VALID,238,VALID,0.308594,
2009-02-12, 01:31:04,VALID,997.122,VALID,0,VALID,87.1837,VALID,0,VALID,25.616,VALID,238,VALID,0.100391,
2009-02-12, 01:32:04,VALID,997.121,VALID,0,VALID,87.2142,VALID,0,VALID,25.5964,VALID,238,VALID,0.00429688,
2009-02-12, 01:33:04,VALID,997.123,VALID,0,VALID,87.3286,VALID,0,VALID,25.5964,VALID,238,VALID,0,
2009-02-12, 01:34:04,VALID,997.109,VALID,0,VALID,87.4431,VALID,0,VALID,25.5574,VALID,238,VALID,0.123828,
2009-02-12, 01:35:04,VALID,997.141,VALID,0,VALID,87.4965,VALID,0,VALID,25.575,VALID,248,VALID,0.492578,
2009-02-12, 01:36:04,VALID,997.145,VALID,0,VALID,87.5346,VALID,0.112286,VALID,25.575,VALID,286,VALID,0.384766,
2009-02-12, 01:37:04,VALID,997.13,VALID,0,VALID,87.5957,VALID,0,VALID,25.575,VALID,289,VALID,0.489453,
2009-02-12, 01:38:04,VALID,997.149,VALID,0,VALID,87.8551,VALID,0,VALID,25.5359,VALID,290,VALID,0.417969,
2009-02-12, 01:39:04,VALID,997.164,VALID,0,VALID,88.0077,VALID,0,VALID,25.4969,VALID,307,VALID,0.545313,
2009-02-12, 01:40:04,VALID,997.151,VALID,0,VALID,88.4807,VALID,0.112286,VALID,25.4559,VALID,339,VALID,0.721484,
2009-02-12, 01:41:04,VALID,997.129,VALID,0,VALID,89.0987,VALID,0.112286,VALID,25.4383,VALID,10,VALID,0.825781,
2009-02-12, 01:42:04,VALID,997.137,VALID,0,VALID,89.8388,VALID,0.112286,VALID,25.3602,VALID,21,VALID,1.04609,
2009-02-12, 01:43:04,VALID,997.11,VALID,0,VALID,90.3957,VALID,0.112286,VALID,25.2431,VALID,21,VALID,0.898047,
2009-02-12, 01:44:04,VALID,997.162,VALID,0,VALID,90.7849,VALID,0.112286,VALID,25.165,VALID,24,VALID,0.729688,
2009-02-12, 01:45:04,VALID,997.15,VALID,0,VALID,91.1129,VALID,0,VALID,25.0869,VALID,24,VALID,0.585547,
2009-02-12, 01:46:04,VALID,997.15,VALID,0,VALID,91.4868,VALID,0,VALID,25.0498,VALID,51,VALID,0.784375,
2009-02-12, 01:47:04,VALID,997.171,VALID,0,VALID,91.7538,VALID,0,VALID,24.9893,VALID,53,VALID,0.585938,
2009-02-12, 01:48:04,VALID,997.181,VALID,0,VALID,91.9217,VALID,0.112286,VALID,24.9484,VALID,53,VALID,0.403906,
2009-02-12, 01:49:04,VALID,997.152,VALID,0,VALID,92.1353,VALID,0.112286,VALID,24.9503,VALID,47,VALID,0.520703,
2009-02-12, 01:50:04,VALID,997.177,VALID,0,VALID,92.3031,VALID,0,VALID,24.9326,VALID,48,VALID,0.697266,
2009-02-12, 01:51:04,VALID,997.149,VALID,0,VALID,92.4405,VALID,0,VALID,24.9131,VALID,50,VALID,0.461719,
2009-02-12, 01:52:04,VALID,997.177,VALID,0,VALID,92.5702,VALID,0,VALID,24.9131,VALID,49,VALID,0.426562,
2009-02-12, 01:53:04,VALID,997.116,VALID,0,VALID,92.6465,VALID,0,VALID,24.8936,VALID,52,VALID,0.609766,
2009-02-12, 01:54:04,VALID,997.096,VALID,0,VALID,92.7228,VALID,0,VALID,24.8527,VALID,71,VALID,0.587109,
2009-02-12, 01:55:04,VALID,997.117,VALID,0,VALID,92.738,VALID,0,VALID,24.8936,VALID,71,VALID,0.317187,
2009-02-12, 01:56:04,VALID,997.123,VALID,0,VALID,92.6541,VALID,0,VALID,24.8741,VALID,71,VALID,0.392578,
2009-02-12, 01:57:04,VALID,997.156,VALID,0,VALID,92.6465,VALID,0,VALID,24.8936,VALID,71,VALID,0.373828,
2009-02-12, 01:58:04,VALID,997.146,VALID,0,VALID,92.6465,VALID,0,VALID,24.8741,VALID,83,VALID,0.626562,
2009-02-12, 01:59:04,VALID,997.132,VALID,0,VALID,92.6617,VALID,0,VALID,24.8936,VALID,87,VALID,0.657031,
2009-02-12, 02:00:04,VALID,997.168,VALID,0,VALID,92.738,VALID,0,VALID,24.9131,VALID,87,VALID,0.371484,
2009-02-12, 02:01:04,VALID,997.167,VALID,0,VALID,92.6083,VALID,0,VALID,24.8936,VALID,75,VALID,0.769922,
2009-02-12, 02:02:04,VALID,997.181,VALID,0,VALID,92.5397,VALID,0,VALID,24.9131,VALID,73,VALID,0.482812,
2009-02-12, 02:03:04,VALID,997.174,VALID,0,VALID,92.4405,VALID,0,VALID,24.9131,VALID,73,VALID,0.351172,
2009-02-12, 02:04:04,VALID,997.2,VALID,0,VALID,92.4405,VALID,0,VALID,24.9326,VALID,73,VALID,0.450781,
2009-02-12, 02:05:04,VALID,997.174,VALID,0,VALID,92.41,VALID,0,VALID,24.9522,VALID,73,VALID,0.4125,
2009-02-12, 02:06:04,VALID,997.165,VALID,0,VALID,92.3718,VALID,0,VALID,24.9503,VALID,76,VALID,0.296484,
2009-02-12, 02:07:04,VALID,997.216,VALID,0,VALID,92.3566,VALID,0,VALID,24.9717,VALID,76,VALID,0.198828,
2009-02-12, 02:08:04,VALID,997.172,VALID,0,VALID,92.3489,VALID,0,VALID,24.9912,VALID,76,VALID,0.182422,
2009-02-12, 02:09:04,VALID,997.149,VALID,0,VALID,92.41,VALID,0,VALID,24.9912,VALID,76,VALID,0.312109,
2009-02-12, 02:10:04,VALID,997.162,VALID,0,VALID,92.4176,VALID,0,VALID,25.0107,VALID,76,VALID,0.308203,
2009-02-12, 02:11:04,VALID,997.165,VALID,0,VALID,92.326,VALID,0,VALID,25.0088,VALID,76,VALID,0.286719,
2009-02-12, 02:12:04,VALID,997.156,VALID,0,VALID,92.4863,VALID,0,VALID,25.0284,VALID,76,VALID,0.00117188,
2009-02-12, 02:13:04,VALID,997.154,VALID,0,VALID,92.4786,VALID,0,VALID,25.0693,VALID,76,VALID,0.0941406,
2009-02-12, 02:14:04,VALID,997.131,VALID,0,VALID,92.5091,VALID,0,VALID,25.0888,VALID,76,VALID,0.263281,
2009-02-12, 02:15:04,VALID,997.125,VALID,0,VALID,92.3794,VALID,0,VALID,25.0888,VALID,76,VALID,0.118359,
2009-02-12, 02:16:04,VALID,997.098,VALID,0,VALID,92.3489,VALID,0,VALID,25.0888,VALID,76,VALID,0.314063,
2009-02-12, 02:17:04,VALID,997.099,VALID,0,VALID,92.2574,VALID,0,VALID,25.0693,VALID,76,VALID,0.238281,
2009-02-12, 02:18:04,VALID,997.057,VALID,0,VALID,92.2879,VALID,0,VALID,25.0888,VALID,76,VALID,0.225,
2009-02-12, 02:19:04,VALID,997.087,VALID,0,VALID,92.3489,VALID,0,VALID,25.0888,VALID,76,VALID,0.272266,
2009-02-12, 02:20:04,VALID,997.144,VALID,0,VALID,92.4252,VALID,0,VALID,25.0693,VALID,76,VALID,0.147266,
2009-02-12, 02:21:04,VALID,997.144,VALID,0,VALID,92.5015,VALID,0,VALID,25.0498,VALID,72,VALID,0.273438,
2009-02-12, 02:22:04,VALID,997.145,VALID,0,VALID,92.532,VALID,0,VALID,25.0498,VALID,53,VALID,0.338281,
2009-02-12, 02:23:04,VALID,997.159,VALID,0,VALID,92.5854,VALID,0,VALID,25.0498,VALID,53,VALID,0.128906,
2009-02-12, 02:24:04,VALID,997.106,VALID,0,VALID,92.5931,VALID,0,VALID,25.0498,VALID,53,VALID,0.116797,
2009-02-12, 02:25:04,VALID,997.073,VALID,0,VALID,92.677,VALID,0,VALID,25.0303,VALID,53,VALID,0.157422,
2009-02-12, 02:26:04,VALID,997.086,VALID,0,VALID,92.6388,VALID,0,VALID,25.0107,VALID,53,VALID,0.391016,
2009-02-12, 02:27:04,VALID,997.042,VALID,0,VALID,92.471,VALID,0,VALID,24.9522,VALID,69,VALID,0.927734,
2009-02-12, 02:28:04,VALID,997.106,VALID,0,VALID,92.5091,VALID,0,VALID,24.9131,VALID,69,VALID,0.848437,
2009-02-12, 02:29:04,VALID,997.069,VALID,0,VALID,92.4786,VALID,0,VALID,24.8741,VALID,69,VALID,0.674609,
2009-02-12, 02:30:04,VALID,997.065,VALID,0,VALID,92.6846,VALID,0,VALID,24.835,VALID,66,VALID,0.607422,
2009-02-12, 02:31:04,VALID,997.053,VALID,0,VALID,92.8983,VALID,0,VALID,24.835,VALID,66,VALID,0.43125,
2009-02-12, 02:32:04,VALID,997.054,VALID,0,VALID,92.822,VALID,0,VALID,24.796,VALID,66,VALID,0.2625,
2009-02-12, 02:33:04,VALID,997.047,VALID,0,VALID,92.8296,VALID,0,VALID,24.7551,VALID,66,VALID,0.160547,
2009-02-12, 02:34:04,VALID,997.014,VALID,0,VALID,92.8448,VALID,0,VALID,24.7393,VALID,66,VALID,0.0117188,
2009-02-12, 02:35:04,VALID,997.035,VALID,0,VALID,92.9211,VALID,0,VALID,24.6984,VALID,66,VALID,0,
2009-02-12, 02:36:04,VALID,996.987,VALID,0,VALID,93.0127,VALID,0,VALID,24.6594,VALID,66,VALID,0,
2009-02-12, 02:37:04,VALID,996.982,VALID,0,VALID,93.1271,VALID,0,VALID,24.6398,VALID,67,VALID,0.381641,
2009-02-12, 02:38:04,VALID,996.982,VALID,0,VALID,93.1958,VALID,0,VALID,24.6203,VALID,67,VALID,0.139844,
2009-02-12, 02:39:04,VALID,996.999,VALID,0,VALID,93.3408,VALID,0,VALID,24.6008,VALID,67,VALID,0.148828,
2009-02-12, 02:40:04,VALID,996.996,VALID,0,VALID,93.3408,VALID,0,VALID,24.5618,VALID,67,VALID,0,
2009-02-12, 02:41:04,VALID,996.966,VALID,0,VALID,93.501,VALID,0,VALID,24.5618,VALID,67,VALID,0,
2009-02-12, 02:42:04,VALID,996.977,VALID,0,VALID,93.5315,VALID,0,VALID,24.5422,VALID,67,VALID,0,
2009-02-12, 02:43:04,VALID,996.952,VALID,0,VALID,93.7223,VALID,0,VALID,24.5227,VALID,81,VALID,0.611328,
2009-02-12, 02:44:04,VALID,996.983,VALID,0,VALID,93.9206,VALID,0,VALID,24.5422,VALID,91,VALID,0.535156,
2009-02-12, 02:45:04,VALID,996.951,VALID,0,VALID,93.9359,VALID,0,VALID,24.5209,VALID,101,VALID,0.596094,
2009-02-12, 02:46:04,VALID,996.989,VALID,0,VALID,93.8596,VALID,0,VALID,24.5227,VALID,117,VALID,0.633984,
2009-02-12, 02:47:04,VALID,996.995,VALID,0,VALID,93.9435,VALID,0,VALID,24.5227,VALID,141,VALID,0.901172,
2009-02-12, 02:48:04,VALID,997.022,VALID,0,VALID,93.974,VALID,0,VALID,24.5013,VALID,141,VALID,0.469922,
2009-02-12, 02:49:04,VALID,997.001,VALID,0,VALID,93.9435,VALID,0,VALID,24.5227,VALID,123,VALID,0.507422,
2009-02-12, 02:50:04,VALID,996.996,VALID,0,VALID,93.7985,VALID,0,VALID,24.4837,VALID,123,VALID,0,
2009-02-12, 02:51:04,VALID,996.969,VALID,0,VALID,93.8596,VALID,0,VALID,24.5051,VALID,123,VALID,0.163281,
2009-02-12, 02:52:04,VALID,997.005,VALID,0,VALID,93.9511,VALID,0,VALID,24.4837,VALID,120,VALID,0.298047,
2009-02-12, 02:53:04,VALID,996.994,VALID,0,VALID,94.0961,VALID,0,VALID,24.4837,VALID,120,VALID,0.148047,
2009-02-12, 02:54:04,VALID,996.985,VALID,0,VALID,94.0045,VALID,0,VALID,24.4623,VALID,120,VALID,0,
2009-02-12, 02:55:04,VALID,996.976,VALID,0,VALID,93.9054,VALID,0,VALID,24.4837,VALID,121,VALID,0.298828,
2009-02-12, 02:56:04,VALID,996.993,VALID,0,VALID,93.9206,VALID,0,VALID,24.4837,VALID,121,VALID,0.160547,
2009-02-12, 02:57:04,VALID,997.026,VALID,0,VALID,94.1495,VALID,0,VALID,24.5227,VALID,199,VALID,0.667969,
2009-02-12, 02:58:04,VALID,997.011,VALID,0,VALID,94.264,VALID,0,VALID,24.5813,VALID,203,VALID,0.60625,
2009-02-12, 02:59:04,VALID,997.026,VALID,0,VALID,94.2182,VALID,0,VALID,24.6203,VALID,199,VALID,0.85,
2009-02-12, 03:00:04,VALID,997.018,VALID,0,VALID,94.0274,VALID,0,VALID,24.6789,VALID,190,VALID,0.467187,
2009-02-12, 03:01:04,VALID,997.016,VALID,0,VALID,93.768,VALID,0,VALID,24.7374,VALID,170,VALID,0.598437,
2009-02-12, 03:02:04,VALID,997.043,VALID,0,VALID,93.562,VALID,0,VALID,24.7746,VALID,194,VALID,0.798437,
2009-02-12, 03:03:04,VALID,997.044,VALID,0,VALID,93.2187,VALID,0,VALID,24.835,VALID,175,VALID,0.835547,
2009-02-12, 03:04:04,VALID,997.035,VALID,0,VALID,93.1653,VALID,0,VALID,24.9131,VALID,192,VALID,0.728906,
2009-02-12, 03:05:04,VALID,996.985,VALID,0,VALID,92.9135,VALID,0,VALID,24.9717,VALID,162,VALID,1.19648,
2009-02-12, 03:06:04,VALID,996.948,VALID,0,VALID,92.7304,VALID,0,VALID,25.0107,VALID,181,VALID,0.961719,
2009-02-12, 03:07:04,VALID,996.902,VALID,0,VALID,92.6236,VALID,0,VALID,25.0303,VALID,149,VALID,1.175,
2009-02-12, 03:08:04,VALID,996.874,VALID,0,VALID,92.4634,VALID,0,VALID,25.0498,VALID,161,VALID,0.982422,
2009-02-12, 03:09:04,VALID,996.866,VALID,0,VALID,92.4557,VALID,0,VALID,25.0303,VALID,157,VALID,1.17461,
2009-02-12, 03:10:04,VALID,996.885,VALID,0,VALID,92.5168,VALID,0,VALID,25.0303,VALID,191,VALID,0.695703,
2009-02-12, 03:11:04,VALID,996.918,VALID,0,VALID,92.326,VALID,0,VALID,25.0303,VALID,204,VALID,1.19883,
2009-02-12, 03:12:04,VALID,996.93,VALID,0,VALID,92.5168,VALID,0,VALID,25.0303,VALID,198,VALID,0.974219,
2009-02-12, 03:13:04,VALID,996.91,VALID,0,VALID,92.4328,VALID,0,VALID,25.0498,VALID,164,VALID,0.354297,
2009-02-12, 03:14:04,VALID,996.9,VALID,0,VALID,91.8683,VALID,0,VALID,25.0888,VALID,246,VALID,0.871094,
2009-02-12, 03:15:04,VALID,996.88,VALID,0,VALID,91.3266,VALID,0,VALID,25.206,VALID,207,VALID,0.389844,
2009-02-12, 03:16:04,VALID,996.886,VALID,0,VALID,90.9832,VALID,0,VALID,25.245,VALID,207,VALID,0.258594,
2009-02-12, 03:17:04,VALID,996.882,VALID,0,VALID,90.4949,VALID,0,VALID,25.2821,VALID,207,VALID,0.0953125,
2009-02-12, 03:18:04,VALID,996.893,VALID,0,VALID,89.8083,VALID,0,VALID,25.3621,VALID,209,VALID,0.805469,
2009-02-12, 03:19:04,VALID,996.881,VALID,0,VALID,89.4191,VALID,0,VALID,25.4988,VALID,220,VALID,0.359766,
2009-02-12, 03:20:04,VALID,996.863,VALID,0,VALID,88.5875,VALID,0,VALID,25.616,VALID,244,VALID,1.0332,
2009-02-12, 03:21:04,VALID,996.859,VALID,0,VALID,88.0458,VALID,0,VALID,25.6941,VALID,256,VALID,0.239063,
2009-02-12, 03:22:04,VALID,996.877,VALID,0,VALID,87.7788,VALID,0,VALID,25.7331,VALID,222,VALID,0.670703,
2009-02-12, 03:23:04,VALID,996.878,VALID,0,VALID,87.26,VALID,0,VALID,25.7917,VALID,213,VALID,0.641016,
2009-02-12, 03:24:04,VALID,996.889,VALID,0,VALID,87.7635,VALID,0,VALID,25.8308,VALID,181,VALID,0.857031,
2009-02-12, 03:25:04,VALID,996.897,VALID,0,VALID,87.6796,VALID,0,VALID,25.8503,VALID,194,VALID,0.333203,
2009-02-12, 03:26:04,VALID,996.907,VALID,0,VALID,87.8322,VALID,0,VALID,25.8503,VALID,192,VALID,0.482812,
2009-02-12, 03:27:04,VALID,996.919,VALID,0,VALID,87.4889,VALID,0,VALID,25.8112,VALID,192,VALID,0.351172,
2009-02-12, 03:28:04,VALID,996.88,VALID,0,VALID,87.2981,VALID,0,VALID,25.8308,VALID,192,VALID,0.588281,
2009-02-12, 03:29:04,VALID,996.905,VALID,0,VALID,87.466,VALID,0,VALID,25.8503,VALID,192,VALID,0.615625,
2009-02-12, 03:30:04,VALID,996.886,VALID,0,VALID,87.9848,VALID,0,VALID,25.8503,VALID,192,VALID,0.465625,
2009-02-12, 03:31:04,VALID,996.914,VALID,0,VALID,88.0534,VALID,0,VALID,25.8112,VALID,192,VALID,0.298047,
2009-02-12, 03:32:04,VALID,996.878,VALID,0,VALID,87.0387,VALID,0,VALID,25.7897,VALID,268,VALID,0.571094,
2009-02-12, 03:33:04,VALID,996.903,VALID,0,VALID,87.4049,VALID,0.112286,VALID,25.8308,VALID,269,VALID,0.171875,
2009-02-12, 03:34:04,VALID,996.894,VALID,0,VALID,87.4278,VALID,0,VALID,25.8503,VALID,269,VALID,0,
2009-02-12, 03:35:05,VALID,996.89,VALID,0,VALID,86.8785,VALID,0,VALID,25.8308,VALID,279,VALID,0.176172,
2009-02-12, 03:36:05,VALID,996.896,VALID,0,VALID,87.1684,VALID,0,VALID,25.8308,VALID,182,VALID,0.345703,
2009-02-12, 03:37:05,VALID,996.917,VALID,0,VALID,87.0997,VALID,0,VALID,25.8503,VALID,182,VALID,0.202734,
2009-02-12, 03:38:05,VALID,996.979,VALID,0,VALID,87.3897,VALID,0,VALID,25.8503,VALID,182,VALID,0.0140625,
2009-02-12, 03:39:05,VALID,996.996,VALID,0,VALID,86.7259,VALID,0,VALID,25.8698,VALID,295,VALID,0.460156,
2009-02-12, 03:40:05,VALID,996.995,VALID,0,VALID,86.6572,VALID,0,VALID,25.8893,VALID,294,VALID,0.113281,
2009-02-12, 03:41:05,VALID,997.021,VALID,0,VALID,86.764,VALID,0,VALID,25.9284,VALID,252,VALID,0.301172,
2009-02-12, 03:42:05,VALID,997.042,VALID,0,VALID,86.6954,VALID,0,VALID,25.9479,VALID,138,VALID,0.465625,
2009-02-12, 03:43:05,VALID,997.07,VALID,0,VALID,86.764,VALID,0,VALID,25.9479,VALID,150,VALID,0.447266,
2009-02-12, 03:44:05,VALID,997.047,VALID,0,VALID,86.9395,VALID,0,VALID,25.9479,VALID,166,VALID,0.626172,
2009-02-12, 03:45:05,VALID,997.07,VALID,0,VALID,88.0611,VALID,0,VALID,25.9284,VALID,154,VALID,1.07656,